UAL876 KDEN-KEGE

Flight info

Callsign UAL876
Flight time 0h 26m
Altitude 22000
Route ZIMMR4 ZIMMR CULCH
Aircraft B738/M-SDE2E3FGHIRWXY/LB1

Departure

Time 2026-05-08 04:11
Airport Denver International Airport (KDEN)

Arrival

Time 2026-05-08 04:38
Airport Eagle County Regional Airport (KEGE)
Time Latitude Longitude Altitude Speed Heading
2026-05-08 03:54 39.85329 -104.67618 5365 ft 0 kts 360°
2026-05-08 03:58 39.85330 -104.67618 5365 ft 0 kts 360°
2026-05-08 03:59 39.85319 -104.67618 5365 ft 4 kts 360°
2026-05-08 03:59 39.85307 -104.67618 5365 ft 3 kts 360°
2026-05-08 03:59 39.85279 -104.67618 5365 ft 4 kts 360°
2026-05-08 04:00 39.85274 -104.67618 5365 ft 0 kts 360°
2026-05-08 04:00 39.85284 -104.67630 5365 ft 4 kts 308°
2026-05-08 04:00 39.85279 -104.67688 5365 ft 9 kts 243°
2026-05-08 04:01 39.85243 -104.67771 5362 ft 11 kts 252°
2026-05-08 04:01 39.85239 -104.67868 5363 ft 11 kts 271°
2026-05-08 04:01 39.85239 -104.67963 5364 ft 10 kts 270°
2026-05-08 04:01 39.85240 -104.68055 5364 ft 10 kts 270°
2026-05-08 04:02 39.85241 -104.68145 5362 ft 10 kts 270°
2026-05-08 04:02 39.85228 -104.68230 5364 ft 10 kts 252°
2026-05-08 04:02 39.85208 -104.68311 5365 ft 9 kts 255°
2026-05-08 04:02 39.85205 -104.68393 5363 ft 9 kts 270°
2026-05-08 04:03 39.85204 -104.68474 5365 ft 9 kts 270°
2026-05-08 04:03 39.85203 -104.68628 5362 ft 8 kts 269°
2026-05-08 04:03 39.85202 -104.68702 5361 ft 8 kts 269°
2026-05-08 04:04 39.85200 -104.68790 5365 ft 12 kts 267°
2026-05-08 04:04 39.85197 -104.68912 5365 ft 15 kts 270°
2026-05-08 04:04 39.85195 -104.69053 5363 ft 15 kts 268°
2026-05-08 04:04 39.85195 -104.69188 5364 ft 15 kts 272°
2026-05-08 04:05 39.85199 -104.69317 5364 ft 14 kts 272°
2026-05-08 04:05 39.85201 -104.69433 5365 ft 12 kts 271°
2026-05-08 04:05 39.85202 -104.69542 5364 ft 12 kts 271°
2026-05-08 04:05 39.85226 -104.69638 5364 ft 12 kts 326°
2026-05-08 04:06 39.85303 -104.69655 5365 ft 11 kts 360°
2026-05-08 04:06 39.85397 -104.69654 5363 ft 15 kts
2026-05-08 04:06 39.85509 -104.69652 5364 ft 16 kts
2026-05-08 04:06 39.85590 -104.69617 5364 ft 11 kts 57°
2026-05-08 04:07 39.85600 -104.69522 5365 ft 9 kts 89°
2026-05-08 04:07 39.85596 -104.69485 5362 ft 0 kts 105°
2026-05-08 04:08 39.85595 -104.69479 5365 ft 4 kts 107°
2026-05-08 04:08 39.85546 -104.69439 5362 ft 12 kts 178°
2026-05-08 04:08 39.85462 -104.69440 5364 ft 12 kts 180°
2026-05-08 04:09 39.85379 -104.69440 5365 ft 12 kts 180°
2026-05-08 04:09 39.85299 -104.69441 5365 ft 11 kts 180°
2026-05-08 04:09 39.85226 -104.69449 5363 ft 10 kts 204°
2026-05-08 04:09 39.85203 -104.69529 5365 ft 10 kts 267°
2026-05-08 04:10 39.85202 -104.69606 5365 ft 6 kts 270°
2026-05-08 04:10 39.85210 -104.69641 5364 ft 4 kts 314°
2026-05-08 04:10 39.85236 -104.69657 5364 ft 4 kts 351°
2026-05-08 04:10 39.85267 -104.69657 5363 ft 8 kts
2026-05-08 04:11 39.85538 -104.69654 5366 ft 74 kts
2026-05-08 04:11 39.86248 -104.69646 5364 ft 128 kts
2026-05-08 04:11 39.87336 -104.69622 5464 ft 178 kts
2026-05-08 04:11 39.88612 -104.69607 6193 ft 187 kts
2026-05-08 04:12 39.89950 -104.69599 6967 ft 200 kts
2026-05-08 04:12 39.91417 -104.69851 7255 ft 231 kts 338°
2026-05-08 04:12 39.92756 -104.71178 7573 ft 258 kts 306°
2026-05-08 04:12 39.93454 -104.73417 7986 ft 283 kts 279°
2026-05-08 04:13 39.93553 -104.76100 8515 ft 304 kts 270°
2026-05-08 04:13 39.93522 -104.78820 9839 ft 295 kts 274°
2026-05-08 04:13 39.93648 -104.81432 11264 ft 284 kts 277°
2026-05-08 04:13 39.93815 -104.84034 12084 ft 297 kts 277°
2026-05-08 04:14 39.93996 -104.86834 12360 ft 324 kts 275°
2026-05-08 04:14 39.94181 -104.89846 12868 ft 340 kts 275°
2026-05-08 04:14 39.94363 -104.92956 13645 ft 347 kts 275°
2026-05-08 04:14 39.94537 -104.96089 14521 ft 349 kts 275°
2026-05-08 04:15 39.94713 -104.99261 15414 ft 350 kts 276°
2026-05-08 04:15 39.94886 -105.02438 16171 ft 353 kts 276°
2026-05-08 04:15 39.95057 -105.05637 16801 ft 356 kts 276°
2026-05-08 04:15 39.95230 -105.08881 17339 ft 362 kts 276°
2026-05-08 04:16 39.95421 -105.12137 18090 ft 359 kts 277°
2026-05-08 04:16 39.95559 -105.15381 18918 ft 355 kts 275°
2026-05-08 04:16 39.95701 -105.18560 19711 ft 349 kts 276°
2026-05-08 04:16 39.95868 -105.21720 20245 ft 351 kts 276°
2026-05-08 04:17 39.96037 -105.24913 20829 ft 352 kts 276°
2026-05-08 04:17 39.96204 -105.28075 21568 ft 347 kts 276°
2026-05-08 04:17 39.96365 -105.31156 21991 ft 346 kts 275°
2026-05-08 04:17 39.96528 -105.34332 22036 ft 345 kts 275°
2026-05-08 04:18 39.96686 -105.37459 22094 ft 348 kts 275°
2026-05-08 04:18 39.96844 -105.40584 22094 ft 350 kts 275°
2026-05-08 04:18 39.97002 -105.43741 22098 ft 348 kts 275°
2026-05-08 04:18 39.97157 -105.46894 22113 ft 347 kts 275°
2026-05-08 04:19 39.97317 -105.50025 22130 ft 346 kts 275°
2026-05-08 04:19 39.97469 -105.53161 22148 ft 346 kts 275°
2026-05-08 04:19 39.97619 -105.56291 22150 ft 346 kts 275°
2026-05-08 04:19 39.97763 -105.59429 22163 ft 346 kts 275°
2026-05-08 04:20 39.97916 -105.62561 22180 ft 346 kts 275°
2026-05-08 04:20 39.98013 -105.64634 22174 ft 347 kts 275°
2026-05-08 04:20 39.98154 -105.67762 22191 ft 346 kts 275°
2026-05-08 04:20 39.98290 -105.70893 22212 ft 347 kts 275°
2026-05-08 04:21 39.98491 -105.75081 22165 ft 348 kts 275°
2026-05-08 04:21 39.98645 -105.78225 22219 ft 347 kts 275°
2026-05-08 04:21 39.98747 -105.80348 22205 ft 348 kts 275°
2026-05-08 04:21 39.98940 -105.84479 22214 ft 338 kts 275°
2026-05-08 04:22 39.99030 -105.86478 22172 ft 330 kts 275°
2026-05-08 04:22 39.99163 -105.89461 21939 ft 326 kts 275°
2026-05-08 04:22 39.99301 -105.92398 21629 ft 323 kts 275°
2026-05-08 04:22 39.99432 -105.95312 21300 ft 320 kts 275°
2026-05-08 04:23 39.99564 -105.98212 20964 ft 319 kts 275°
2026-05-08 04:23 39.99696 -106.01088 20600 ft 317 kts 275°
2026-05-08 04:23 39.99825 -106.03952 20253 ft 315 kts 275°
2026-05-08 04:23 39.99953 -106.06807 19911 ft 315 kts 275°
2026-05-08 04:24 40.00075 -106.09656 19556 ft 314 kts 275°
2026-05-08 04:24 40.00196 -106.12500 19193 ft 313 kts 275°
2026-05-08 04:24 40.00318 -106.15334 18716 ft 316 kts 275°
2026-05-08 04:24 40.00444 -106.18163 18314 ft 316 kts 275°
2026-05-08 04:25 40.00567 -106.21032 17912 ft 316 kts 275°
2026-05-08 04:25 40.00687 -106.23879 17703 ft 311 kts 275°
2026-05-08 04:25 40.00803 -106.26660 17537 ft 304 kts 275°
2026-05-08 04:25 40.00918 -106.29380 17394 ft 297 kts 276°
2026-05-08 04:26 40.01029 -106.32032 17265 ft 289 kts 275°
2026-05-08 04:26 40.01137 -106.34615 17124 ft 279 kts 275°
2026-05-08 04:26 40.01239 -106.37084 17004 ft 266 kts 276°
2026-05-08 04:26 40.01334 -106.39441 16885 ft 255 kts 276°
2026-05-08 04:27 40.01351 -106.41720 16775 ft 250 kts 263°
2026-05-08 04:27 40.00684 -106.43806 16606 ft 254 kts 241°
2026-05-08 04:27 39.99465 -106.45516 16371 ft 262 kts 224°
2026-05-08 04:27 39.98009 -106.46955 16126 ft 262 kts 221°
2026-05-08 04:28 39.96550 -106.48343 15875 ft 257 kts 221°
2026-05-08 04:28 39.95121 -106.49720 15587 ft 254 kts 222°
2026-05-08 04:28 39.93716 -106.51084 15319 ft 250 kts 222°
2026-05-08 04:28 39.92342 -106.52434 15073 ft 245 kts 222°
2026-05-08 04:29 39.91008 -106.53745 14814 ft 242 kts 222°
2026-05-08 04:29 39.89677 -106.55053 14573 ft 237 kts 222°
2026-05-08 04:29 39.88372 -106.56337 14365 ft 233 kts 222°
2026-05-08 04:29 39.87092 -106.57596 14146 ft 228 kts 222°
2026-05-08 04:30 39.85836 -106.58830 13897 ft 224 kts 222°
2026-05-08 04:30 39.84610 -106.60036 13653 ft 218 kts 222°
2026-05-08 04:30 39.83415 -106.61209 13419 ft 212 kts 221°
2026-05-08 04:30 39.82065 -106.61959 13193 ft 215 kts 192°
2026-05-08 04:31 39.80583 -106.62187 13012 ft 214 kts 191°
2026-05-08 04:31 39.79106 -106.62407 12812 ft 213 kts 191°
2026-05-08 04:31 39.77626 -106.62632 12575 ft 215 kts 191°
2026-05-08 04:31 39.76138 -106.62867 12361 ft 217 kts 191°
2026-05-08 04:32 39.74637 -106.63107 12150 ft 217 kts 191°
2026-05-08 04:32 39.73141 -106.63346 11939 ft 216 kts 191°
2026-05-08 04:32 39.71669 -106.63582 11763 ft 210 kts 191°
2026-05-08 04:32 39.70235 -106.63878 11601 ft 206 kts 204°
2026-05-08 04:33 39.69145 -106.64916 11480 ft 195 kts 232°
2026-05-08 04:33 39.68265 -106.66329 11152 ft 200 kts 236°
2026-05-08 04:33 39.67440 -106.67714 10867 ft 192 kts 236°
2026-05-08 04:33 39.66779 -106.69146 10554 ft 179 kts 258°
2026-05-08 04:34 39.66592 -106.70745 10306 ft 183 kts 263°
2026-05-08 04:34 39.66399 -106.72402 10015 ft 187 kts 261°
2026-05-08 04:34 39.66206 -106.74075 9727 ft 184 kts 262°
2026-05-08 04:34 39.66020 -106.75665 9413 ft 173 kts 262°
2026-05-08 04:35 39.65855 -106.77158 9068 ft 162 kts 263°
2026-05-08 04:35 39.65701 -106.78585 8817 ft 160 kts 262°
2026-05-08 04:35 39.65542 -106.80038 8538 ft 166 kts 262°
2026-05-08 04:35 39.65376 -106.81532 8292 ft 168 kts 262°
2026-05-08 04:36 39.65212 -106.83034 8004 ft 168 kts 262°
2026-05-08 04:36 39.65051 -106.84526 7713 ft 165 kts 262°
2026-05-08 04:36 39.64889 -106.85988 7411 ft 160 kts 262°
2026-05-08 04:36 39.64732 -106.87413 7185 ft 160 kts 262°
2026-05-08 04:37 39.64573 -106.88859 6891 ft 163 kts 262°
2026-05-08 04:37 39.64418 -106.90307 6614 ft 162 kts 262°
2026-05-08 04:37 39.64266 -106.91703 6467 ft 140 kts 262°
2026-05-08 04:37 39.64182 -106.92475 6452 ft 51 kts 262°
2026-05-08 04:38 39.64157 -106.92696 6454 ft 19 kts 262°
2026-05-08 04:38 39.64117 -106.92791 6449 ft 9 kts 203°
2026-05-08 04:38 39.64062 -106.92784 6445 ft 8 kts 151°
2026-05-08 04:38 39.64044 -106.92722 6449 ft 8 kts 85°
2026-05-08 04:39 39.64052 -106.92648 6447 ft 8 kts 82°
2026-05-08 04:39 39.64059 -106.92576 6452 ft 8 kts 82°
2026-05-08 04:39 39.64067 -106.92505 6449 ft 8 kts 82°
2026-05-08 04:39 39.64076 -106.92431 6459 ft 9 kts 82°
2026-05-08 04:40 39.64085 -106.92340 6452 ft 11 kts 82°
2026-05-08 04:40 39.64096 -106.92235 6448 ft 13 kts 82°
2026-05-08 04:40 39.64110 -106.92119 6457 ft 14 kts 82°
2026-05-08 04:40 39.64122 -106.91999 6465 ft 13 kts 82°
2026-05-08 04:41 39.64134 -106.91886 6473 ft 13 kts 82°
2026-05-08 04:41 39.64147 -106.91775 6477 ft 12 kts 81°
2026-05-08 04:41 39.64159 -106.91668 6481 ft 11 kts 82°
2026-05-08 04:41 39.64159 -106.91592 6483 ft 5 kts 111°
2026-05-08 04:42 39.64131 -106.91563 6484 ft 5 kts 154°
2026-05-08 04:42 39.64096 -106.91553 6484 ft 5 kts 171°
2026-05-08 04:42 39.64068 -106.91547 6484 ft 1 kts 169°
2026-05-08 04:42 39.64059 -106.91545 6484 ft 1 kts 168°
2026-05-08 04:43 39.64058 -106.91544 6484 ft 0 kts 168°